This demonstration page uses our WeatherBlox Daily Observations layout. Learn more.

Left ArrowRight Arrow

Hourly Observations for February 2, 2019

Temp ( °F °C ) Dew Point ( °F °C ) Humidity (%) Winds ( mph kmh ) Pressure ( in mb ) Visibility ( mi km ) Precip ( " mm )
12:52 am 00:52 Clear 30 -1.1 26 -3.3 85 85 SSE 10 17 30.04 1017 7 11 0.00 0.00
1:52 am 01:52 Clear with Mist and Fog 30 -1.1 26 -3.3 85 85 SSE 13 20 30.02 1017 5 8 0.00 0.00
2:42 am 02:42 Mostly Cloudy with Mist and Fog 33 0.6 30 -1.1 89 89 SSE 10 17 30.05 1018 5 8 0.00 0.00
2:52 am 02:52 Cloudy with Mist and Fog 35 1.7 31 -0.6 85 85 S 10 17 30.02 1017 5 8 0.00 0.00
3:52 am 03:52 Cloudy with Mist and Fog 35 1.7 32 0 89 89 SSE 10 17 30.01 1016 4 6 0.00 0.00
4:52 am 04:52 Cloudy with Mist and Fog 34 1.1 32 0 92 92 SE 13 20 29.99 1016 4 6 0.00 0.00
5:20 am 05:20 Cloudy with Mist and Fog 35 1.7 33 0.6 93 93 SSE 10 17 30.02 1016 4 6 0.00 0.00
5:52 am 05:52 Cloudy with Mist and Fog 35 1.7 33 0.6 93 93 SSE 8 13 29.98 1015 4 6 0.00 0.00
6:52 am 06:52 Cloudy with Mist and Fog 35 1.7 33 0.6 93 93 SSE 12 19 29.97 1015 4 6 0.00 0.00
7:21 am 07:21 Cloudy with Mist and Fog 35 1.7 33 0.6 93 93 SE 9 15 30.00 1016 4 6 0.00 0.00
7:52 am 07:52 Cloudy with Mist and Fog 36 2.2 33 0.6 89 89 SSE 13 20 29.97 1015 3 5 0.00 0.00
8:02 am 08:02 Cloudy with Mist and Fog 36 2.2 33 0.6 89 89 SSE 12 19 29.99 1016 3 5 0.00 0.00
8:24 am 08:24 Cloudy with Mist and Fog 36 2.2 34 1.1 93 93 SSE 8 13 29.98 1015 3 5 0.00 0.00
8:39 am 08:39 Cloudy with Drizzle 37 2.8 34 1.1 89 89 SSE 10 17 29.99 1016 3 4 0.00 0.03
8:52 am 08:52 Cloudy with Drizzle 37 2.8 35 1.7 93 93 SSE 12 19 29.98 1015 2 2 0.00 0.03
9:21 am 09:21 Cloudy with Mist and Fog 37 2.8 34 1.1 89 89 SSE 12 19 29.98 1015 2 3 0.00 0.03
9:52 am 09:52 Cloudy with Mist and Fog 37 2.8 35 1.7 93 93 SSE 10 17 29.95 1014 2 3 0.00 0.03
10:35 am 10:35 Cloudy with Mist and Fog 38 3.3 36 2.2 93 93 S 10 17 29.96 1015 1 2 0.00 0.00
10:52 am 10:52 Cloudy with Mist and Fog 38 3.3 36 2.2 93 93 SSE 10 17 29.94 1014 1 1 0.00 0.00
11:52 am 11:52 Cloudy with Mist and Fog 37 2.8 35 1.7 93 93 SSE 10 17 29.92 1013 1 1 0.00 0.00
12:20 pm 12:20 Cloudy with Mist and Fog 37 2.8 36 2.2 96 96 SSE 8 13 29.91 1013 1 2 0.00 0.00
12:40 pm 12:40 Cloudy with Mist and Fog 40 4.4 38 3.3 93 93 S 12 19 29.89 1012 3 5 0.00 0.00
12:52 pm 12:52 Cloudy with Mist and Fog 40 4.4 38 3.3 93 93 S 12 19 29.87 1012 4 6 0.00 0.00
1:05 pm 13:05 Cloudy with Mist and Fog 41 5 38 3.3 89 89 S 12 19 29.87 1012 5 8 0.00 0.00
1:52 pm 13:52 Cloudy with Mist and Fog 41 5 39 3.9 93 93 S 13 20 29.83 1010 4 6 0.00 0.00
2:26 pm 14:26 Cloudy with Mist and Fog 41 5 39 3.9 93 93 S 12 19 29.82 1010 2 2 0.00 0.00
2:52 pm 14:52 Cloudy with Mist and Fog 41 5 39 3.9 93 93 S 10 17 29.80 1009 1 2 0.00 0.00
3:05 pm 15:05 Cloudy with Mist and Fog 41 5 39 3.9 93 93 S 10 17 29.81 1010 1 1 0.00 0.00
3:36 pm 15:36 Mostly Cloudy with Fog 41 5 39 3.9 93 93 S 8 13 29.80 1009 0 0 0.00 0.00
3:52 pm 15:52 Mostly Cloudy with Fog 40 4.4 39 3.9 97 97 S 7 11 29.79 1009 0 0 0.00 0.00
4:52 pm 16:52 Mostly Cloudy with Fog 41 5 39 3.9 93 93 S 9 15 29.78 1009 0 0 0.00 0.00
5:52 pm 17:52 Mostly Cloudy with Fog 40 4.4 39 3.9 97 97 SSE 8 13 29.77 1008 0 0 0.00 0.00
6:52 pm 18:52 Mostly Cloudy with Fog 40 4.4 39 3.9 97 97 S 9 15 29.75 1008 0 0 0.00 0.00
7:52 pm 19:52 Mostly Cloudy with Fog 42 5.6 41 5 96 96 S 5 7 29.76 1008 0 0 0.00 0.00
8:52 pm 20:52 Mostly Cloudy with Fog 41 5 40 4.4 96 96 S 9 15 29.74 1007 0 0 0.00 0.00
9:52 pm 21:52 Mostly Cloudy with Fog 39 3.9 38 3.3 96 96 SSE 12 19 29.73 1007 0 0 0.00 0.00
10:52 pm 22:52 Mostly Cloudy with Fog 39 3.9 38 3.3 96 96 SE 10 17 29.73 1007 0 0 0.00 0.00
11:52 pm 23:52 Mostly Cloudy with Fog 38 3.3 37 2.8 97 97 SE 12 19 29.72 1007 0 0 0.00 0.00

Powered by AerisWeather